Weather History for Las Vegas, NM

Change the Weather History Date:

Monday, May 5, 2014

  Actual Average Record
Temperature  
Mean Temperature 64 °F -  
Max Temperature 78 °F 67 °F 84 °F (2000)
Min Temperature 50 °F 38 °F 28 °F (1991)
Degree Days  
Heating Degree Days 1    
Growing Degree Days 14 (Base 50)    
Moisture  
Dew Point 9 °F    
Average Humidity 12    
Maximum Humidity 18    
Minimum Humidity 6    
Precipitation  
Precipitation 0.00 in - - ()
Sea Level Pressure  
Sea Level Pressure 29.73 in    
Wind  
Wind Speed 10 mph (WSW)    
Max Wind Speed 31 mph    
Max Gust Speed 38 mph    
Visibility 10 miles    
Events      
Averages and records for this station are not official NWS values.
T = Trace of Precipitation, MM = Missing Value Source: NWS Daily Summary

Daily Weather History Graph

Daily Weather History Graph

Search for Another Location

Airport:

Trip Planner

Search our weather history database for the weather conditions in past years. The results will help you decide how hot, cold, wet, or windy it might be!

Date:

Astronomy

May. 05, 2014 Rise Set
Actual Time 6:04 AM MDT 7:50 PM MDT
Civil Twilight 5:36 AM MDT 8:18 PM MDT
Nautical Twilight 5:03 AM MDT 8:51 PM MDT
Astronomical Twilight 4:28 AM MDT 9:27 PM MDT
Moon 11:25 AM MDT (5/5) 12:36 AM MDT (5/5)
Length of Visible Light 14h 41m
Length of Day
13h 46m
Waxing Crescent, 37% of the Moon is Illuminated
May 5
Waxing Crescent
May 6
First Quarter
May 14
Full
May 21
Last Quarter
May 28
New

Hourly Weather History & Observations

Time (MDT) Temp. Dew Point Humidity Pressure Visibility Wind Dir Wind Speed Gust Speed Precip Events Conditions
12:53 AM 60.1 °F 7.0 °F 12% 29.76 in 10.0 mi Calm Calm - N/A   Clear
1:53 AM 53.1 °F 8.1 °F 16% 29.78 in 10.0 mi WSW 9.2 mph - N/A   Clear
2:53 AM 55.0 °F 7.0 °F 15% 29.77 in 10.0 mi SSW 6.9 mph - N/A   Clear
3:53 AM 52.0 °F 8.1 °F 17% 29.78 in 10.0 mi West 8.1 mph - N/A   Clear
4:53 AM 50.0 °F 8.1 °F 18% 29.80 in 10.0 mi WSW 9.2 mph - N/A   Clear
5:53 AM 55.9 °F 8.1 °F 15% 29.79 in 10.0 mi WSW 5.8 mph - N/A   Clear
6:53 AM 53.1 °F 10.0 °F 18% 29.82 in 10.0 mi SSW 5.8 mph - N/A   Clear
7:53 AM 62.1 °F 12.9 °F 15% 29.80 in 10.0 mi SW 4.6 mph - N/A   Clear
8:53 AM 66.9 °F 15.1 °F 14% 29.80 in 10.0 mi South 8.1 mph - N/A   Clear
9:53 AM 70.0 °F 10.9 °F 10% 29.78 in 10.0 mi WSW 9.2 mph - N/A   Clear
10:53 AM 73.0 °F 8.1 °F 8% 29.78 in 10.0 mi NW 17.3 mph 23.0 mph N/A   Clear
12:53 PM 75.0 °F 3.9 °F 6% 29.72 in 10.0 mi SW 21.9 mph - N/A   Clear
1:53 PM 75.9 °F 8.1 °F 7% 29.73 in 10.0 mi WSW 19.6 mph - N/A   Clear
2:53 PM 78.1 °F 6.1 °F 6% 29.68 in 10.0 mi West 23.0 mph 29.9 mph N/A   Clear
3:53 PM 77.0 °F 7.0 °F 7% 29.67 in 10.0 mi WSW 31.1 mph 38.0 mph N/A   Clear
4:53 PM 73.0 °F 9.0 °F 8% 29.68 in 10.0 mi SW 25.3 mph 35.7 mph N/A   Clear
5:53 PM 71.1 °F 10.9 °F 10% 29.67 in 10.0 mi WSW 25.3 mph 32.2 mph N/A   Clear
6:53 PM 71.1 °F 10.0 °F 9% 29.68 in 10.0 mi WSW 17.3 mph 28.8 mph N/A   Clear
7:53 PM 63.0 °F 10.0 °F 13% 29.68 in 10.0 mi WSW 10.4 mph - N/A   Clear
8:53 PM 59.0 °F 8.1 °F 13% 29.68 in 10.0 mi SW 9.2 mph - N/A   Clear
10:53 PM 55.0 °F 10.0 °F 17% 29.66 in 10.0 mi South 4.6 mph - N/A   Clear
11:53 PM 57.9 °F 8.1 °F 14% 29.64 in 10.0 mi WSW 4.6 mph - N/A   Clear